OneWeb SL0061

operational
NORAD ID: 45428 Int'l Des: 2020-020 Owner: ONEWEB Country: UK Constellation: oneweb
LEOCIRCULARPOLARONEWEB_TYPE

Über OneWeb SL0061

Beschreibung wird geladen...

Live-Position

3D-Globus wird geladen...

Nächste Überflüge

Höhenverlauf

Altitude vs Time

uPlot chart will show altitude changes over time

Zweizeiliger Elementsatz

1 45428U 20020E 25352.26894385 .00000126 00000-0 32049-3 0 9999
2 45428 87.8863 57.0736 0001779 101.9194 258.2134 13.11412891278915
Epoch: 18. Dez. 2025 • Age: 7 hours

Aktueller Status

Höhe 1238.6 km
Geschwindigkeit 7.23 km/s
Subsatellitenpunkt -51.58°S, 44.59°W
Startdatum 21. März 2020
Alter 5.7 years
Typ internet

Technische Details

Klassifizierung Payload
Masse 148.00 kg
Trockenmasse 140.00 kg
Gesamtmasse 148.00 kg
Länge 1.30 m
Durchmesser 1.00 m
Spannweite 5.00 m
Form Trapezoid+2 pan
Hersteller ONEWUS
Bus-Typ ARROW
Phasenstatus In Orbit
Besitzer/Staat ONEWEB/UK

Große Konstellationen

Loading constellations...